Location: ??
(34.7707°N, 135.6540°E)
Time: 05:44:41
(UTC+00:00)

COSMO-SKYMED 1 - Pass Details

Date: 09 April 2020
Orbit: 621 x 623 km, 97.9° (Epoch: 05 June)

Event Time Altitude Azimuth Distance (km) Brightness Sun altitude
Rises 19:44:06 0° 148° (SSE) 2,887 6.2 -10.4°
Reaches altitude 10° 19:46:23 10° 140° (SE) 1,985 5.5 -10.0°
Maximum altitude 19:50:22 38° 73° (ENE) 963 4.3 -9.2°
Drops below altitude 10° 19:54:23 10° 6° (N) 1,999 5.5 -8.4°
Sets 19:56:41 0° 358° (N) 2,909 6.2 -8.0°
